Regional Weather Roundup
Issued by NWS

Home | Current Version | Previous Version | Text Only | Print | Product List | Glossary Off
Versions: 1 2 3 4 5 6 7 8 9 10 11 12 13 14 15 16 17 18 19 20 21 22 23 24 25 26 27 28 29 30 31 32 33 34 35 36 37 38 39 40 41 42 43 44 45 46 47 48 49 50

000
ASUS45 KBOU 251707
RWRCO

WEATHER ROUNDUP FOR COLORADO
NATIONAL WEATHER SERVICE DENVER/BOULDER CO
1000 AM MST TUE NOV 25 2014

NOTE: "FAIR" INDICATES FEW OR NO CLOUDS BELOW 12000 FEET WITH NO
SIGNIFICANT WEATHER AND/OR OBSTRUCTIONS TO VISIBILITY.

COZ001>005-013-030-031-251800-
...NORTHWEST COLORADO...

CITY           SKY/WX    TMP DP  RH WIND       PRES   REMARKS
CRAIG          CLOUDY    24  17  74 E7        30.27R WCI  16
HAYDEN         CLOUDY    19  16  86 E8        30.26R WCI   9
MEEKER         CLOUDY    28  13  53 VRB5      30.30R WCI  23
MOUNT WERNER   NOT AVBL
STEAMBOAT SPGS CLOUDY    15  13  91 CALM      30.26R
WALDEN         CLOUDY    23  12  63 SW17G24   30.11R WCI   9
$$

COZ006>008-011-251800-
...WEST CENTRAL VALLEYS...

CITY           SKY/WX    TMP DP  RH WIND       PRES   REMARKS
GRAND JUNCTION CLOUDY    29  15  56 VRB3      30.38F
MONTROSE       CLOUDY    26  14  60 N5        30.39S WCI  20
EAGLE          LGT SNOW  21  19  93 S5        30.34R FOG     WCI  15
RIFLE          CLOUDY    20  16  84 CALM      30.39R
DELTA          CLOUDY    30  20  66 E3        30.40S
NUCLA          CLOUDY    30  14  51 CALM      30.44F
$$

COZ017>023-064>068-251800-
...SOUTHWEST COLORADO...

CITY           SKY/WX    TMP DP  RH WIND       PRES   REMARKS
DURANGO        SUNNY     25   9  50 VRB3      30.37S
CORTEZ         CLOUDY    32  11  41 VRB7      30.42S WCI  26
PAGOSA SPRINGS SUNNY     25   2  37 CALM      30.34S
TELLURIDE      CLOUDY    21   6  52 CALM      30.37S
WOLF CREEK PAS SUNNY     12   0  57 MISG      30.22S
$$

COZ009-010-012-014-032>034-037-058>063-251800-
...CENTRAL COLORADO...

CITY           SKY/WX    TMP DP  RH WIND       PRES   REMARKS
ASPEN          FLURRIES  19  13  77 CALM      30.29R
BUENA VISTA    PTSUNNY   31   8  37 NW39G51   30.09S HAZE    WCI  15
COPPER MTN     CLOUDY    12   5  73 W23G30    30.12R WCI  -7
BERTHOUD PASS  NOT AVBL
COTTONWOOD PAS PTSUNNY   27   9  46 NW22G39   30.03R WCI  12
GUNNISON       MOSUNNY   10   3  72 CALM      30.38S
KREMMLING      LGT SNOW  23  16  74 W18G24    30.24R WCI   9
LEADVILLE      SNOW      13   9  84 N14G21    30.18R VSB 1/4 WCI  -2
MONARCH PASS   CLOUDY     9   3  78 MISG      30.20R
SALIDA         PTSUNNY   37   8  30 W24G35    30.18R
SUNLIGHT       SNOW     N/A N/A N/A CALM      30.23R VSB 1/2
WILKERSON PASS NOT AVBL
$$

COZ069>075-251800-
...SAN LUIS VALLEY/SANGRE DE CRISTO MOUNTAINS...

CITY           SKY/WX    TMP DP  RH WIND       PRES   REMARKS
ALAMOSA        MOSUNNY   18   4  54 SE3       30.28F
LA VETA PASS   CLOUDY    16   1  53 MISG      30.05F
SAGUACHE       NOT AVBL
$$

COZ035-036-038>040-251800-
...NORTHERN COLORADO FRONT RANGE...

CITY           SKY/WX    TMP DP  RH WIND       PRES   REMARKS
DENVER INTL AP CLOUDY    38  11  32 SW13      29.94S
DMNS CITY PARK   N/A     39  10  29 SW6       29.97S
AURORA         PTSUNNY   37  11  33 W10       29.97R
FRONT RANGE AP PTSUNNY   39  14  35 SW20      29.95
ERIE MUNI ARPT CLOUDY    42   9  25 W16G25    29.94S
BOULDER MUN AP CLOUDY    45   9  23 W24G36    29.91S
CENTENNIAL     CLOUDY    39  11  31 W17G31    29.96S
BROOMFIELD     PTSUNNY   39  10  30 W39G51    29.95R
FORT COLLINS   CLOUDY    25  18  74 N7        29.94S WCI  17
LONGMONT       CLOUDY    41  17  37 CALM      29.94S
$$

COZ041-046-047-076>085-087-088-251800-
...PIKES PEAK/PALMER DIVIDE AND SOUTHERN FOOTHILLS...

CITY           SKY/WX    TMP DP  RH WIND       PRES   REMARKS
COLO. SPRINGS  CLOUDY    30  12  47 E12       30.00F WCI  20
A. F. ACADEMY  CLOUDY    37   9  30 W17G24    29.96F
ELLICOTT       NOT AVBL
FALCON         NOT AVBL
FORT CARSON    CLOUDY    27  16  62 N7        29.99F WCI  20
LIMON          CLOUDY    38  11  32 SW12      29.99F
MONUMENT HILL  CLOUDY    32  12  43 W12       29.97S WCI  23
TRINIDAD       MOSUNNY   34  16  47 SW13      30.09F WCI  25
$$

COZ042>045-048>051-090-091-251800-
...NORTHEAST COLORADO...

CITY           SKY/WX    TMP DP  RH WIND       PRES   REMARKS
GREELEY ARPT   CLOUDY    28  16  59 NE5       29.95F WCI  23
AKRON          CLOUDY    39  11  31 SW17      29.95F
BURLINGTON     CLOUDY    38  11  32 SW21G30   30.03F
WRAY           CLOUDY    40  12  31 SW12      29.99F
STERLING       CLOUDY    36  21  55 SW6       29.96S
HOLYOKE        CLOUDY    37  19  48 SW14      29.96F
FORT MORGAN    CLOUDY    36  19  49 S3        29.96F
$$

COZ086-089-092>099-251800-
...SOUTHEAST COLORADO...

CITY           SKY/WX    TMP DP  RH WIND       PRES   REMARKS
PUEBLO         PTSUNNY   42  10  27 W20       30.01F
LA JUNTA       CLOUDY    40  16  37 SW14      30.05F
LAMAR          PTSUNNY   42  14  32 SW15      30.08F
SPRINGFIELD      N/A     40  16  37 SW14G21   30.10F
$$



USA.gov is the U.S. government's official web portal to all federal, state and local government web resources and services.